Weather History for KPVU - February, 2013

Change the Weather History Date:

Saturday, February 16, 2013

  Actual Average Record
Temperature  
Mean Temperature 20 °F -  
Max Temperature 33 °F 40 °F 55 °F (2003)
Min Temperature 6 °F 25 °F -8 °F (1989)
Degree Days  
Heating Degree Days 46    
Moisture  
Dew Point 15 °F    
Average Humidity 88    
Maximum Humidity 100    
Minimum Humidity 60    
Precipitation  
Precipitation 0.00 in - - ()
Sea Level Pressure  
Sea Level Pressure 30.35 in    
Wind  
Wind Speed 1 mph (NNW)    
Max Wind Speed 6 mph    
Max Gust Speed -    
Visibility 10 miles    
Events      
Averages and records for this station are not official NWS values.
T = Trace of Precipitation, MM = Missing Value Source: NWS Daily Summary

Daily Weather History Graph

Daily Weather History Graph

Search for Another Location

Airport or City:

Trip Planner

Search our weather history database for the weather conditions in past years. The results will help you decide how hot, cold, wet, or windy it might be!

Date:

Astronomy

Feb. 16, 2013 Rise Set
Actual Time 7:18 AM MST 6:04 PM MST
Civil Twilight 6:50 AM MST 6:31 PM MST
Nautical Twilight 6:18 AM MST 7:03 PM MST
Astronomical Twilight 5:47 AM MST 7:35 PM MST
Moon 10:32 AM MST (2/16) 12:08 AM MST (2/16)
Length of Visible Light 11h 41m
Length of Day
10h 45m
Waxing Crescent, 40% of the Moon is Illuminated
Feb 16
Waxing Crescent
Feb 17
First Quarter
Feb 25
Full
Mar 4
Last Quarter
Mar 11
New

Hourly Weather History & Observations

Time (MST) Temp. Windchill Dew Point Humidity Pressure Visibility Wind Dir Wind Speed Gust Speed Precip Events Conditions
12:15 AM 19.4 °F - 17.6 °F 93% 30.51 in 9.0 mi Calm Calm - N/A   Clear
12:35 AM 15.8 °F 10.2 °F 15.8 °F 100% 30.51 in 3.0 mi SSW 3.5 mph - N/A   Clear
12:55 AM 12.2 °F - 12.2 °F 100% 30.51 in 0.5 mi Calm Calm - N/A   Unknown
1:15 AM 14.0 °F 8.2 °F 14.0 °F 100% 30.51 in 7.0 mi North 3.5 mph - N/A   Clear
1:35 AM 15.8 °F 10.2 °F 15.8 °F 100% 30.51 in 5.0 mi NE 3.5 mph - N/A   Clear
1:55 AM 15.8 °F - 14.0 °F 93% 30.51 in 8.0 mi Calm Calm - N/A   Clear
2:15 AM 15.8 °F - 14.0 °F 93% 30.51 in 10.0 mi Calm Calm - N/A   Clear
2:35 AM 15.8 °F - 15.8 °F 100% 30.51 in 9.0 mi Calm Calm - N/A   Clear
2:55 AM 12.2 °F - 8.6 °F 85% 30.50 in 8.0 mi Calm Calm - N/A   Clear
3:15 AM 12.2 °F - 12.2 °F 100% 30.49 in 8.0 mi Calm Calm - N/A   Clear
3:35 AM 12.2 °F 2.9 °F 10.4 °F 92% 30.48 in 10.0 mi WNW 5.8 mph - N/A   Clear
3:55 AM 12.2 °F - 10.4 °F 92% 30.48 in 10.0 mi Calm Calm - N/A   Clear
4:15 AM 10.4 °F 4.0 °F 8.6 °F 92% 30.47 in 10.0 mi NW 3.5 mph - N/A   Clear
4:35 AM 12.2 °F - 10.4 °F 92% 30.47 in 3.0 mi Calm Calm - N/A   Clear
4:55 AM 12.2 °F - 10.4 °F 92% 30.47 in 10.0 mi Calm Calm - N/A   Clear
5:15 AM 12.2 °F - 10.4 °F 92% 30.46 in 10.0 mi Calm Calm - N/A   Clear
5:35 AM 15.8 °F 7.2 °F 15.8 °F 100% 30.46 in 10.0 mi ESE 5.8 mph - N/A   Clear
5:55 AM 8.6 °F - 1.4 °F 73% 30.45 in 10.0 mi Calm Calm - N/A   Clear
6:15 AM 10.4 °F 4.0 °F 10.4 °F 100% 30.45 in 10.0 mi ESE 3.5 mph - N/A   Clear
6:35 AM 8.6 °F - 6.8 °F 92% 30.45 in 10.0 mi Calm Calm - N/A   Clear
6:55 AM 8.6 °F - 8.6 °F 100% 30.45 in 10.0 mi Calm Calm - N/A   Clear
7:47 AM 6.8 °F - 6.8 °F 100% 30.45 in 15.0 mi Calm Calm - N/A   Clear
8:59 AM 10.4 °F - 8.6 °F 92% 30.44 in 15.0 mi Calm Calm - N/A   Clear
9:57 AM 19.4 °F - 17.6 °F 93% 30.43 in 15.0 mi Calm Calm - N/A   Clear
10:56 AM 24.8 °F - 19.4 °F 80% 30.41 in 15.0 mi Calm Calm - N/A   Clear
11:47 AM 24.8 °F - 19.4 °F 80% 30.39 in 15.0 mi Calm Calm - N/A   Clear
12:47 PM 28.4 °F 23.3 °F 21.2 °F 74% 30.35 in 15.0 mi Variable 4.6 mph - N/A   Clear
1:47 PM 32.0 °F 27.5 °F 21.2 °F 64% 30.30 in 15.0 mi Variable 4.6 mph - N/A   Clear
2:48 PM 33.8 °F - 21.2 °F 60% 30.27 in 15.0 mi Calm Calm - N/A   Partly Cloudy
3:50 PM 33.8 °F 29.6 °F 21.2 °F 60% 30.24 in 15.0 mi Variable 4.6 mph - N/A   Partly Cloudy
5:50 PM 33.8 °F 29.6 °F 21.2 °F 60% 30.20 in 15.0 mi Variable 4.6 mph - N/A   Partly Cloudy
6:50 PM 26.6 °F - 21.2 °F 80% 30.17 in 15.0 mi Calm Calm - N/A   Partly Cloudy
7:50 PM 26.6 °F - 21.2 °F 80% 30.15 in 15.0 mi Calm Calm - N/A   Partly Cloudy
8:50 PM 21.2 °F - 17.6 °F 86% 30.12 in 15.0 mi Calm Calm - N/A   Partly Cloudy
9:15 PM 19.4 °F - 15.8 °F 86% 30.12 in 10.0 mi Calm Calm - N/A   Clear
9:35 PM 21.2 °F - 17.6 °F 86% 30.11 in 10.0 mi Calm Calm - N/A   Clear
9:55 PM 21.2 °F - 17.6 °F 86% 30.11 in 10.0 mi Calm Calm - N/A   Clear
10:15 PM 21.2 °F - 19.4 °F 93% 30.10 in 10.0 mi Calm Calm - N/A   Clear
10:35 PM 21.2 °F - 19.4 °F 93% 30.10 in 10.0 mi Calm Calm - N/A   Clear
10:55 PM 21.2 °F - 19.4 °F 93% 30.09 in 10.0 mi Calm Calm - N/A   Clear
11:15 PM 23.0 °F - 19.4 °F 86% 30.08 in 10.0 mi Calm Calm - N/A   Clear
11:35 PM 21.2 °F - 19.4 °F 93% 30.07 in 10.0 mi Calm Calm - N/A   Clear
11:55 PM 17.6 °F 12.3 °F 15.8 °F 93% 30.06 in 8.0 mi West 3.5 mph - N/A   Clear